TimeCDT,TemperatureF,Dew PointF,Humidity,Sea Level PressureIn,VisibilityMPH,Wind Direction,Wind SpeedMPH,Gust SpeedMPH,PrecipitationIn,Events,Conditions,WindDirDegrees,DateUTC
12:15 AM,30.2,26.6,86,29.62,8.0,South,17.3,20.7,N/A,,Clear,180,2014-03-14 05:15:00
12:35 AM,30.2,26.6,86,29.61,7.0,South,16.1,21.9,N/A,,Clear,180,2014-03-14 05:35:00
12:55 AM,32.0,26.6,80,29.59,7.0,South,16.1,-,N/A,,Clear,180,2014-03-14 05:55:00
1:15 AM,32.0,28.4,87,29.58,7.0,South,15.0,20.7,N/A,,Clear,180,2014-03-14 06:15:00
1:35 AM,33.8,28.4,81,29.57,8.0,South,17.3,-,N/A,,Clear,190,2014-03-14 06:35:00
1:55 AM,33.8,28.4,81,29.56,7.0,South,16.1,-,N/A,,Clear,190,2014-03-14 06:55:00
2:15 AM,33.8,28.4,81,29.55,7.0,South,15.0,20.7,N/A,,Clear,190,2014-03-14 07:15:00
2:35 AM,33.8,30.2,87,29.54,7.0,South,13.8,-,N/A,,Clear,190,2014-03-14 07:35:00
2:55 AM,33.8,30.2,87,29.52,7.0,South,15.0,-,N/A,,Clear,180,2014-03-14 07:55:00
3:15 AM,33.8,30.2,87,29.51,7.0,South,11.5,-,N/A,,Clear,180,2014-03-14 08:15:00
3:35 AM,33.8,30.2,87,29.50,7.0,South,10.4,-,N/A,,Clear,180,2014-03-14 08:35:00
3:55 AM,35.6,30.2,81,29.48,9.0,SSE,8.1,-,N/A,,Clear,160,2014-03-14 08:55:00
4:15 AM,35.6,30.2,81,29.47,10.0,SSE,8.1,-,N/A,,Clear,160,2014-03-14 09:15:00
4:35 AM,35.6,30.2,81,29.46,10.0,South,8.1,-,N/A,,Clear,170,2014-03-14 09:35:00
4:55 AM,35.6,30.2,81,29.49,10.0,NW,8.1,-,N/A,,Scattered Clouds,310,2014-03-14 09:55:00
5:15 AM,37.4,30.2,75,29.47,10.0,WSW,5.8,-,N/A,,Clear,240,2014-03-14 10:15:00
5:35 AM,39.2,30.2,70,29.44,10.0,SSW,11.5,-,N/A,,Clear,200,2014-03-14 10:35:00
5:55 AM,41.0,30.2,65,29.43,10.0,SW,16.1,24.2,N/A,,Clear,220,2014-03-14 10:55:00
6:15 AM,41.0,30.2,65,29.43,10.0,SW,15.0,-,N/A,,Clear,220,2014-03-14 11:15:00
6:35 AM,39.2,30.2,70,29.42,10.0,SW,13.8,-,N/A,,Clear,230,2014-03-14 11:35:00
6:55 AM,39.2,30.2,70,29.42,10.0,SW,13.8,-,N/A,,Clear,230,2014-03-14 11:55:00
7:15 AM,39.2,30.2,70,29.42,10.0,SW,13.8,-,N/A,,Clear,230,2014-03-14 12:15:00
7:35 AM,39.2,30.2,70,29.42,10.0,SW,16.1,21.9,N/A,,Clear,230,2014-03-14 12:35:00
7:55 AM,39.2,30.2,70,29.41,10.0,SW,13.8,-,N/A,,Clear,230,2014-03-14 12:55:00
8:15 AM,39.2,30.2,70,29.40,10.0,WSW,12.7,-,N/A,,Clear,240,2014-03-14 13:15:00
8:35 AM,39.2,30.2,70,29.41,10.0,WSW,13.8,-,N/A,,Clear,240,2014-03-14 13:35:00
8:55 AM,39.2,30.2,70,29.41,10.0,WSW,15.0,20.7,N/A,,Clear,250,2014-03-14 13:55:00
9:15 AM,39.2,30.2,70,29.41,10.0,WSW,12.7,-,N/A,,Clear,250,2014-03-14 14:15:00
9:35 AM,39.2,30.2,70,29.41,10.0,WSW,11.5,-,N/A,,Clear,250,2014-03-14 14:35:00
9:55 AM,39.2,30.2,70,29.41,10.0,WSW,11.5,-,N/A,,Clear,250,2014-03-14 14:55:00
10:15 AM,41.0,30.2,65,29.40,10.0,WSW,11.5,-,N/A,,Partly Cloudy,250,2014-03-14 15:15:00
10:35 AM,41.0,32.0,70,29.41,10.0,West,8.1,-,N/A,,Mostly Cloudy,260,2014-03-14 15:35:00
10:55 AM,41.0,32.0,70,29.41,10.0,WSW,9.2,-,N/A,,Overcast,250,2014-03-14 15:55:00
11:15 AM,41.0,32.0,70,29.41,10.0,WSW,10.4,-,N/A,,Overcast,250,2014-03-14 16:15:00
11:35 AM,41.0,30.2,65,29.42,10.0,West,9.2,-,N/A,,Overcast,260,2014-03-14 16:35:00
11:55 AM,41.0,32.0,70,29.42,10.0,West,10.4,-,N/A,,Overcast,260,2014-03-14 16:55:00
12:15 PM,41.0,32.0,70,29.43,10.0,West,12.7,-,N/A,,Overcast,260,2014-03-14 17:15:00
12:35 PM,41.0,32.0,70,29.43,10.0,West,8.1,-,N/A,,Overcast,260,2014-03-14 17:35:00
12:55 PM,42.8,32.0,66,29.42,10.0,WSW,10.4,-,N/A,,Mostly Cloudy,250,2014-03-14 17:55:00
1:15 PM,42.8,33.8,70,29.41,10.0,West,8.1,-,N/A,,Mostly Cloudy,260,2014-03-14 18:15:00
1:35 PM,42.8,33.8,70,29.42,10.0,West,11.5,-,N/A,,Overcast,260,2014-03-14 18:35:00
1:55 PM,42.8,33.8,70,29.42,10.0,West,12.7,18.4,N/A,,Overcast,260,2014-03-14 18:55:00
2:15 PM,42.8,32.0,66,29.43,10.0,West,10.4,-,N/A,,Mostly Cloudy,260,2014-03-14 19:15:00
2:35 PM,42.8,32.0,66,29.43,10.0,West,11.5,-,N/A,,Overcast,260,2014-03-14 19:35:00
2:55 PM,42.8,32.0,66,29.43,10.0,West,12.7,-,N/A,,Overcast,260,2014-03-14 19:55:00
3:15 PM,42.8,32.0,66,29.44,10.0,West,13.8,-,N/A,,Overcast,270,2014-03-14 20:15:00
3:35 PM,42.8,30.2,61,29.46,10.0,West,12.7,18.4,N/A,,Overcast,280,2014-03-14 20:35:00
3:55 PM,42.8,30.2,61,29.47,10.0,West,13.8,20.7,N/A,,Overcast,270,2014-03-14 20:55:00
4:15 PM,41.0,30.2,65,29.47,10.0,West,16.1,23.0,N/A,,Overcast,270,2014-03-14 21:15:00
4:35 PM,41.0,30.2,65,29.48,10.0,West,12.7,-,N/A,,Overcast,270,2014-03-14 21:35:00
4:55 PM,39.2,30.2,70,29.50,10.0,West,12.7,-,N/A,,Overcast,280,2014-03-14 21:55:00
5:15 PM,41.0,30.2,65,29.51,10.0,West,15.0,21.9,N/A,,Overcast,280,2014-03-14 22:15:00
5:35 PM,39.2,30.2,70,29.52,10.0,West,11.5,-,N/A,,Overcast,280,2014-03-14 22:35:00
5:55 PM,39.2,30.2,70,29.53,10.0,West,10.4,-,N/A,,Overcast,280,2014-03-14 22:55:00
6:15 PM,39.2,28.4,65,29.54,10.0,WNW,12.7,-,N/A,,Overcast,290,2014-03-14 23:15:00
6:35 PM,39.2,28.4,65,29.56,10.0,WNW,16.1,21.9,N/A,,Overcast,290,2014-03-14 23:35:00
6:55 PM,37.4,28.4,70,29.57,10.0,WNW,10.4,-,N/A,,Overcast,290,2014-03-14 23:55:00
7:15 PM,37.4,28.4,70,29.58,10.0,WNW,10.4,16.1,N/A,,Overcast,290,2014-03-15 00:15:00
7:35 PM,39.2,28.4,65,29.59,10.0,West,9.2,-,N/A,,Overcast,280,2014-03-15 00:35:00
7:55 PM,39.2,28.4,65,29.60,10.0,West,6.9,-,N/A,,Overcast,280,2014-03-15 00:55:00
8:15 PM,37.4,28.4,70,29.61,10.0,West,8.1,-,N/A,,Overcast,280,2014-03-15 01:15:00
8:35 PM,39.2,28.4,65,29.62,10.0,West,9.2,-,N/A,,Overcast,280,2014-03-15 01:35:00
8:55 PM,39.2,28.4,65,29.63,10.0,WNW,9.2,-,N/A,,Overcast,290,2014-03-15 01:55:00
9:15 PM,37.4,28.4,70,29.64,10.0,West,8.1,-,N/A,,Overcast,280,2014-03-15 02:15:00
9:35 PM,37.4,28.4,70,29.64,10.0,WNW,9.2,-,N/A,,Overcast,290,2014-03-15 02:35:00
9:55 PM,37.4,28.4,70,29.65,10.0,WNW,10.4,-,N/A,,Overcast,300,2014-03-15 02:55:00
10:15 PM,37.4,28.4,70,29.66,10.0,WNW,9.2,-,N/A,,Overcast,300,2014-03-15 03:15:00
10:35 PM,37.4,28.4,70,29.67,10.0,NW,10.4,-,N/A,,Overcast,310,2014-03-15 03:35:00
10:55 PM,37.4,28.4,70,29.68,10.0,NW,13.8,-,N/A,,Overcast,320,2014-03-15 03:55:00
11:15 PM,35.6,28.4,75,29.69,10.0,NW,12.7,18.4,N/A,,Overcast,310,2014-03-15 04:15:00
11:35 PM,35.6,26.6,70,29.70,10.0,NNW,16.1,-,N/A,,Overcast,330,2014-03-15 04:35:00
11:55 PM,35.6,26.6,70,29.72,10.0,NNW,15.0,-,N/A,,Overcast,340,2014-03-15 04:55:00